Regional Weather Roundup
Issued by NWS Bismarck, ND

Home | Current Version | Previous Version | Text Only | Print | Product List | Glossary On
Versions: 1 2 3 4 5 6 7 8 9 10 11 12 13 14 15 16 17 18 19 20 21 22 23 24 25 26 27 28 29 30 31 32 33 34 35 36 37 38 39 40 41 42 43 44 45 46 47 48 49 50
000
ASUS43 KBIS 210010
RWRBIS

NWR BROADCAST TEXT
NATIONAL WEATHER SERVICE BISMARCK ND
700 PM CDT SUN AUG 20 2017

NOTE: "FAIR" INDICATES FEW OR NO CLOUDS BELOW 12,000 FEET WITH NO
SIGNIFICANT WEATHER AND/OR OBSTRUCTIONS TO VISIBILITY.


CITY           SKY/WX    TMP DP  RH WIND       PRES   REMARKS
WILLISTON      PTSUNNY   77  38  24 SE9       29.96F
MINOT          SUNNY     78  34  20 CALM      29.98F
MINOT AFB        N/A     76  35  22 CALM      29.97S
BISMARCK       CLOUDY    69  50  50 S3        30.04S
DICKINSON      CLOUDY    69  46  43 SE12      30.01S
GARRISON         N/A     70  48  45 S6        30.01R
HETTINGER ARPT SUNNY     70  46  42 E15       30.03F
JAMESTOWN      MOSUNNY   69  56  62 CALM      30.01F
CARRINGTON     FAIR      72  50  46 MISG      30.04S
HAZEN          MOCLDY    68  50  52 S8        30.04S
LINTON         FAIR      64  50  59 SE5       30.06S
MANDAN         CLOUDY    66  52  59 S3        30.04F
RUGBY          FAIR      73  41  31 W7        29.99S
STANLEY        FAIR      72  32  23 SW5       30.01F
TIOGA          FAIR      73  30  20 S6        30.00F
WATFORD CITY   FAIR      73  41  31 S12       29.98S
$$

CITY           SKY/WX    TMP DP  RH WIND       PRES   REMARKS
GRAND FORKS    MOSUNNY   76  48  37 N6        29.97R
GRAND FORKS AF SUNNY     74  45  34 W5        29.99R
DEVILS LAKE    SUNNY     73  45  36 SW7       30.01S
FARGO          SUNNY     75  48  38 W6        30.00R
CANDO          FAIR      73  41  31 NW8       30.01S
CAVALIER       FAIR      73  45  35 W7G13     29.96S
GRAFTON        FAIR      75  43  31 NW8       29.99R
GWINNER        CLEAR     70  57  64 CALM      30.04R
LANGDON        FAIR      72  45  37 W7        30.00S
ROLLA          FAIR      70  43  37 W5        30.00F
WALHALLA       FAIR      75  72  88 VRB6      29.96S
$$

CITY           SKY/WX    TMP DP  RH WIND       PRES   REMARKS
ABERDEEN       PTSUNNY   70  56  61 N5        30.04R
MOBRIDGE       CLOUDY    69  51  52 E10       30.01F
BUFFALO          N/A     79  41  25 E21G31    29.91F
RAPID CITY     SUNNY     81  52  36 SE10      29.99F
GLASGOW        PTSUNNY   81  37  20 SW9       29.88F
SIDNEY         PTSUNNY   73  47  39 S8        29.95F
WOLF POINT     CLOUDY    81  39  22 S6        29.91F
GLENDIVE       CLOUDY    78  42  27 E13       29.94F
MILES CITY     SUNNY     87  40  19 SE7       29.87F
BAKER          SUNNY     77  40  26 E23G30    29.96F
$$

CITY           SKY/WX    TMP DP  RH WIND       PRES   REMARKS
BILLINGS       PTSUNNY   83  34  17 N14       29.95S
GREAT FALLS    PTSUNNY   79  24  13 N7        29.99S
REGINA         CLOUDY    70  32  24 SE7       29.94F
ESTEVAN        CLOUDY    73  34  23 NE5       29.96F
$$





USA.gov is the U.S. government's official web portal to all federal, state and local government web resources and services.